カタログに戻る

METEOR 2-8 DEB

運用中PO
NORAD 36859·DEBRIS·🇷🇺 Russia

打ち上げ Mar 25, 1982 から Plesetsk Cosmodrome

Loading…

次のパス (今後24時間)

TLE

最新Source: Space-Track

元期: Sep 14, 2026, 09:22 UTC

1 36859U 82025AW  26257.39082061  .00000868  00000-0  36839-3 0  9993
2 36859  82.5147 139.3559 0032565 212.1224 147.7975 14.24128357115701

AllMySatでMETEOR 2-8 DEBをリアルタイム追跡

Download on the App Store